• In Netherlands
  • List of Countries
  • For 7 days
  • Water Temperature
  • Satellite Maps
  • Weather Map
  • Weather Widgets
  • user-avatar
    Login

    Hourly Weather Ordino

    Today, 21 November, Tuesday

    Time Temperature Precipitation Wind Pressure Humidity
    00:00 +4°C° 0 mm 1 mps 635 mmHg 54%
    01:00 +4°C° 0 mm 1 mps 635 mmHg 54%
    02:00 +4°C° 0 mm 1 mps 635 mmHg 53%
    03:00 +4°C° 0 mm 1 mps 635 mmHg 53%
    04:00 +4°C° 0 mm 1 mps 635 mmHg 51%
    05:00 +3°C° 0 mm 1 mps 635 mmHg 50%
    06:00 +3°C° 0 mm 1 mps 634 mmHg 49%
    07:00 +5°C° 0 mm 1 mps 635 mmHg 45%
    08:00 +7°C° 0 mm 1 mps 636 mmHg 42%
    09:00 +9°C° 0 mm 1 mps 637 mmHg 38%
    10:00 +10°C° 0 mm 1 mps 637 mmHg 35%
    11:00 +12°C° 0 mm 1 mps 637 mmHg 32%
    12:00 +13°C° 0 mm 1 mps 638 mmHg 29%
    13:00 +13°C° 0 mm 1 mps 637 mmHg 34%
    14:00 +12°C° 0 mm 1 mps 637 mmHg 38%
    15:00 +11°C° 0 mm 1 mps 636 mmHg 43%
    16:00 +9°C° 0 mm 1 mps 635 mmHg 47%
    17:00 +7°C° 0 mm 1 mps 634 mmHg 52%
    18:00 +5°C° 0 mm 1 mps 634 mmHg 56%
    19:00 +5°C° 0 mm 1 mps 634 mmHg 56%
    20:00 +5°C° 0 mm 1 mps 633 mmHg 55%
    21:00 +5°C° 0 mm 1 mps 633 mmHg 54%
    22:00 +4°C° 0 mm 1 mps 633 mmHg 53%
    23:00 +4°C° 0 mm 1 mps 633 mmHg 52%

    Tomorrow, 22 November, Wednesday

    Time Temperature Precipitation Wind Pressure Humidity
    00:00 +4°C° 0 mm 1 mps 633 mmHg 51%
    01:00 +4°C° 0 mm 1 mps 632 mmHg 50%
    02:00 +4°C° 0 mm 1 mps 632 mmHg 48%
    03:00 +3°C° 0 mm 1 mps 632 mmHg 46%
    04:00 +3°C° 0 mm 1 mps 631 mmHg 44%
    05:00 +3°C° 0 mm 1 mps 631 mmHg 41%
    06:00 +3°C° 0 mm 1 mps 631 mmHg 38%
    07:00 +5°C° 0 mm 1 mps 631 mmHg 37%
    08:00 +5°C° 0 mm 2 mps 632 mmHg 37%
    09:00 +7°C° 0 mm 2 mps 633 mmHg 36%
    10:00 +9°C° 0 mm 2 mps 633 mmHg 34%
    11:00 +10°C° 0 mm 2 mps 633 mmHg 31%
    12:00 +13°C° 0 mm 2 mps 634 mmHg 29%
    13:00 +12°C° 0 mm 2 mps 633 mmHg 32%
    14:00 +10°C° 0 mm 2 mps 633 mmHg 35%
    15:00 +10°C° 0 mm 2 mps 632 mmHg 38%
    16:00 +7°C° 0 mm 2 mps 631 mmHg 42%
    17:00 +5°C° 0 mm 2 mps 630 mmHg 46%
    18:00 +4°C° 0 mm 1 mps 630 mmHg 49%
    19:00 +3°C° 0 mm 2 mps 630 mmHg 47%
    20:00 +3°C° 0 mm 2 mps 630 mmHg 45%
    21:00 +3°C° 0 mm 2 mps 630 mmHg 43%
    22:00 +2°C° 0 mm 2 mps 630 mmHg 43%
    23:00 +2°C° 0 mm 2 mps 630 mmHg 42%

    Day after tomorrow, 23 November, Thursday

    Time Temperature Precipitation Wind Pressure Humidity
    00:00 +2°C° 0 mm 2 mps 630 mmHg 42%
    01:00 +2°C° 0 mm 2 mps 630 mmHg 43%
    02:00 +3°C° 0 mm 1 mps 630 mmHg 43%
    03:00 +3°C° 0 mm 1 mps 630 mmHg 44%
    04:00 +4°C° 0 mm 1 mps 630 mmHg 44%
    05:00 +4°C° 0 mm 1 mps 631 mmHg 45%
    06:00 +5°C° 0 mm 1 mps 631 mmHg 46%
    07:00 +6°C° 0 mm 1 mps 632 mmHg 48%
    08:00 +7°C° 0 mm 1 mps 633 mmHg 50%
    09:00 +8°C° 0 mm 1 mps 633 mmHg 51%
    10:00 +8°C° 0 mm 2 mps 634 mmHg 50%
    11:00 +10°C° 0 mm 2 mps 634 mmHg 49%
    12:00 +12°C° 0 mm 2 mps 635 mmHg 47%
    13:00 +12°C° 0 mm 2 mps 634 mmHg 50%
    14:00 +10°C° 0 mm 2 mps 634 mmHg 53%
    15:00 +10°C° 0 mm 2 mps 634 mmHg 56%
    16:00 +8°C° 0 mm 2 mps 634 mmHg 61%
    17:00 +6°C° 0 mm 2 mps 633 mmHg 66%
    18:00 +5°C° 0 mm 1 mps 633 mmHg 71%
    19:00 +5°C° 0 mm 1 mps 633 mmHg 71%
    20:00 +5°C° 0 mm 1 mps 633 mmHg 71%
    21:00 +5°C° 0 mm 1 mps 634 mmHg 71%
    22:00 +5°C° 0 mm 1 mps 633 mmHg 71%
    23:00 +5°C° 0 mm 1 mps 633 mmHg 71%

    24 November, Friday

    Time Temperature Precipitation Wind Pressure Humidity
    00:00 +5°C° 0 mm 1 mps 633 mmHg 70%
    01:00 +5°C° 0 mm 1 mps 633 mmHg 69%
    02:00 +4°C° 0 mm 2 mps 633 mmHg 68%
    03:00 +3°C° 0 mm 2 mps 633 mmHg 67%
    04:00 +4°C° 0 mm 2 mps 633 mmHg 64%
    05:00 +4°C° 0 mm 2 mps 633 mmHg 62%
    06:00 +4°C° 0 mm 2 mps 633 mmHg 60%
    07:00 +5°C° 0 mm 2 mps 634 mmHg 56%
    08:00 +7°C° 0 mm 2 mps 634 mmHg 53%
    09:00 +8°C° 0 mm 3 mps 635 mmHg 49%
    10:00 +9°C° 0 mm 3 mps 635 mmHg 46%
    11:00 +10°C° 0 mm 3 mps 635 mmHg 43%
    12:00 +11°C° 0 mm 3 mps 636 mmHg 40%
    13:00 +12°C° 0 mm 2 mps 635 mmHg 42%
    14:00 +10°C° 0 mm 2 mps 635 mmHg 44%
    15:00 +10°C° 0 mm 2 mps 635 mmHg 47%
    16:00 +8°C° 0 mm 2 mps 634 mmHg 50%
    17:00 +7°C° 0 mm 2 mps 633 mmHg 53%
    18:00 +5°C° 0 mm 2 mps 633 mmHg 56%
    19:00 +5°C° 0 mm 2 mps 633 mmHg 56%
    20:00 +5°C° 0 mm 2 mps 633 mmHg 57%
    21:00 +5°C° 0 mm 2 mps 633 mmHg 58%
    22:00 +4°C° 0 mm 2 mps 633 mmHg 58%
    23:00 +4°C° 0 mm 2 mps 633 mmHg 58%

    25 November, Saturday

    Time Temperature Precipitation Wind Pressure Humidity
    00:00 +4°C° 0 mm 2 mps 633 mmHg 58%
    01:00 +4°C° 0 mm 2 mps 632 mmHg 56%
    02:00 +4°C° 0 mm 2 mps 632 mmHg 55%
    03:00 +4°C° 0 mm 2 mps 632 mmHg 54%
    04:00 +4°C° 0 mm 2 mps 632 mmHg 53%
    05:00 +4°C° 0 mm 2 mps 632 mmHg 53%
    06:00 +4°C° 0 mm 2 mps 633 mmHg 52%
    07:00 +5°C° 0 mm 2 mps 634 mmHg 52%
    08:00 +6°C° 0 mm 2 mps 634 mmHg 52%
    09:00 +7°C° 0 mm 2 mps 635 mmHg 52%
    10:00 +8°C° 0 mm 2 mps 636 mmHg 54%
    11:00 +8°C° 0 mm 2 mps 636 mmHg 55%
    12:00 +9°C° 0 mm 2 mps 636 mmHg 57%
    13:00 +8°C° 0 mm 2 mps 636 mmHg 59%
    14:00 +8°C° 0 mm 2 mps 636 mmHg 61%
    15:00 +7°C° 0 mm 2 mps 636 mmHg 63%
    16:00 +6°C° 0 mm 2 mps 636 mmHg 68%
    17:00 +5°C° 0 mm 1 mps 635 mmHg 73%
    18:00 +4°C° 0 mm 1 mps 635 mmHg 78%
    19:00 +4°C° 0 mm 1 mps 635 mmHg 78%
    20:00 +4°C° 0 mm 1 mps 635 mmHg 78%
    21:00 +3°C° 0 mm 1 mps 636 mmHg 78%
    22:00 +4°C° 0.1 mm 1 mps 636 mmHg 79%
    23:00 +4°C° 0.1 mm 1 mps 636 mmHg 79%

    26 November, Sunday

    Time Temperature Precipitation Wind Pressure Humidity
    00:00 +4°C° 0.1 mm 1 mps 636 mmHg 79%
    01:00 +4°C° 0.1 mm 1 mps 636 mmHg 81%
    02:00 +4°C° 0.1 mm 1 mps 636 mmHg 83%
    03:00 +3°C° 0.1 mm 1 mps 636 mmHg 84%
    04:00 +3°C° 0.1 mm 1 mps 636 mmHg 86%
    05:00 +3°C° 0.1 mm 1 mps 636 mmHg 87%
    06:00 +2°C° 0.1 mm 0 mps 636 mmHg 88%
    07:00 +3°C° 0 mm 1 mps 636 mmHg 86%
    08:00 +4°C° 0 mm 1 mps 637 mmHg 84%
    09:00 +4°C° 0 mm 1 mps 638 mmHg 82%
    10:00 +5°C° 0 mm 1 mps 638 mmHg 81%
    11:00 +5°C° 0 mm 1 mps 638 mmHg 80%
    12:00 +6°C° 0 mm 1 mps 638 mmHg 79%
    13:00 +5°C° 0 mm 1 mps 638 mmHg 80%
    14:00 +5°C° 0 mm 1 mps 638 mmHg 82%
    15:00 +4°C° 0 mm 2 mps 638 mmHg 83%
    16:00 +3°C° 0 mm 2 mps 638 mmHg 86%
    17:00 +2°C° 0 mm 2 mps 638 mmHg 90%
    18:00 +1°C° 0 mm 2 mps 638 mmHg 93%
    19:00 +1°C° 0 mm 2 mps 638 mmHg 92%
    20:00 -1°C° 0 mm 2 mps 638 mmHg 91%
    21:00 -1°C° 0 mm 2 mps 638 mmHg 90%
    22:00 -2°C° 0 mm 2 mps 638 mmHg 88%
    23:00 -2°C° 0 mm 2 mps 638 mmHg 86%
    Show more